| time (UTC) | temp C | wind direction | speed KPH | gust KPH | rain 1hr cm | rain 24hr cm | rain mn cm | humidity % | barometer mb |
| 20260504214502 | 21 | 194 | 3.2 | 16.1 | 0.00 | 0.00 | 0.00 | 37 | 1005.8 |
| 20260504213148 | 21 | 219 | 6.4 | 16.1 | 0.00 | 0.00 | 0.00 | 37 | 1005.8 |
| 20260504211508 | 22 | 202 | 4.8 | 17.7 | 0.00 | 0.00 | 0.00 | 38 | 1005.9 |
| 20260504204502 | 22 | 194 | 3.2 | 17.7 | 0.00 | 0.00 | 0.00 | 39 | 1005.9 |
| 20260504203123 | 22 | 206 | 3.2 | 17.7 | 0.00 | 0.00 | 0.00 | 37 | 1005.9 |
| 20260504201504 | 22 | 281 | 3.2 | 19.3 | 0.00 | 0.00 | 0.00 | 37 | 1006.1 |
| 20260504194502 | 22 | 178 | 4.8 | 19.3 | 0.00 | 0.00 | 0.00 | 38 | 1006.3 |
| 20260504193112 | 21 | 241 | 6.4 | 19.3 | 0.00 | 0.00 | 0.00 | 36 | 1006.4 |
| 20260504191502 | 21 | 301 | 4.8 | 16.1 | 0.00 | 0.00 | 0.00 | 38 | 1006.5 |
| 20260504190120 | 21 | 284 | 4.8 | 20.9 | 0.00 | 0.00 | 0.00 | 39 | 1006.8 |
| 20260504184504 | 21 | 175 | 4.8 | 24.1 | 0.00 | 0.00 | 0.00 | 36 | 1006.9 |
| 20260504183101 | 21 | 189 | 8.0 | 22.5 | 0.00 | 0.00 | 0.00 | 37 | 1007.1 |
| 20260504181503 | 21 | 132 | 4.8 | 24.1 | 0.00 | 0.00 | 0.00 | 39 | 1007.2 |
| 20260504174502 | 20 | 167 | 8.0 | 27.4 | 0.00 | 0.00 | 0.00 | 37 | 1007.8 |
| 20260504173002 | 20 | 192 | 6.4 | 17.7 | 0.00 | 0.00 | 0.00 | 36 | 1008.1 |
| 20260504171502 | 20 | 196 | 4.8 | 19.3 | 0.00 | 0.00 | 0.00 | 38 | 1008.3 |
| 20260504140112 | 15 | 355 | 3.2 | 9.7 | 0.00 | 0.00 | 0.00 | 56 | 1010.1 |
| 20260504110120 | 3 | 207 | 0.0 | 0.0 | 0.00 | 0.00 | 0.00 | 80 | 1011.3 |
| 20260504081602 | 3 | 208 | 0.0 | 0.0 | 0.00 | 0.00 | 0.00 | 77 | 1011.1 |
| 20260504050107 | 6 | 238 | 0.0 | 0.0 | 0.00 | 0.00 | 0.00 | 65 | 1010.9 |
| 20260504044504 | 7 | 237 | 0.0 | 0.0 | 0.00 | 0.00 | 0.00 | 60 | 1010.8 |
| 20260504043103 | 7 | 237 | 0.0 | 0.0 | 0.00 | 0.00 | 0.00 | 57 | 1010.7 |
| 20260504041502 | 7 | 237 | 0.0 | 0.0 | 0.00 | 0.00 | 0.00 | 57 | 1010.5 |
| 20260504040107 | 8 | 237 | 0.0 | 0.0 | 0.00 | 0.00 | 0.00 | 55 | 1010.4 |
| 20260504034502 | 8 | 237 | 0.0 | 0.0 | 0.00 | 0.00 | 0.00 | 53 | 1010.2 |
| 20260504033116 | 9 | 237 | 0.0 | 3.2 | 0.00 | 0.00 | 0.00 | 52 | 1010.1 |
| 20260504031502 | 9 | 234 | 0.0 | 0.0 | 0.00 | 0.00 | 0.00 | 51 | 1010.2 |
| 20260504024503 | 10 | 240 | 0.0 | 3.2 | 0.00 | 0.00 | 0.00 | 49 | 1010.1 |
| 20260504023102 | 9 | 323 | 0.0 | 4.8 | 0.00 | 0.00 | 0.00 | 50 | 1010.0 |
| 20260504021502 | 10 | 263 | 0.0 | 0.0 | 0.00 | 0.00 | 0.00 | 49 | 1010.1 |
| 20260504020103 | 10 | 263 | 0.0 | 3.2 | 0.00 | 0.00 | 0.00 | 47 | 1010.0 |
| 20260504014604 | 11 | 327 | 0.0 | 3.2 | 0.00 | 0.00 | 0.00 | 46 | 1009.9 |
| 20260504013002 | 11 | 350 | 0.0 | 3.2 | 0.00 | 0.00 | 0.00 | 46 | 1009.8 |
| 20260504011602 | 11 | 335 | 0.0 | 1.6 | 0.00 | 0.00 | 0.00 | 46 | 1009.7 |
| 20260504010002 | 11 | 338 | 0.0 | 0.0 | 0.00 | 0.00 | 0.00 | 44 | 1009.5 |
| 20260504004604 | 12 | 338 | 0.0 | 3.2 | 0.00 | 0.00 | 0.00 | 41 | 1009.4 |
| 20260504003002 | 12 | 344 | 0.0 | 3.2 | 0.00 | 0.00 | 0.00 | 40 | 1009.1 |
| 20260504001615 | 13 | 305 | 0.0 | 6.4 | 0.00 | 0.00 | 0.00 | 39 | 1008.9 |
| 20260504000003 | 13 | 355 | 3.2 | 8.0 | 0.00 | 0.00 | 0.00 | 38 | 1008.8 |
| 20260503234602 | 13 | 348 | 1.6 | 14.5 | 0.00 | 0.00 | 0.00 | 37 | 1008.7 |
| 20260503233002 | 14 | 336 | 1.6 | 6.4 | 0.00 | 0.00 | 0.00 | 36 | 1008.5 |
| 20260503231603 | 15 | 344 | 1.6 | 8.0 | 0.00 | 0.00 | 0.00 | 35 | 1008.5 |
| 20260503230002 | 15 | 321 | 3.2 | 14.5 | 0.00 | 0.00 | 0.00 | 34 | 1008.5 |
| 20260503224604 | 15 | 355 | 6.4 | 17.7 | 0.00 | 0.00 | 0.00 | 33 | 1008.5 |
| 20260503223003 | 15 | 342 | 6.4 | 20.9 | 0.00 | 0.00 | 0.00 | 32 | 1008.4 |
| 20260503221602 | 15 | 348 | 12.9 | 24.1 | 0.00 | 0.00 | 0.00 | 32 | 1008.3 |
| 20260503220004 | 15 | 355 | 6.4 | 19.3 | 0.00 | 0.00 | 0.00 | 32 | 1008.3 |